Weather History for Vernal, UT

Change the Weather History Date:

Tuesday, February 19, 2013

  Actual Average Record
Temperature  
Mean Temperature 18 °F 28 °F  
Max Temperature 29 °F 38 °F 61 °F (1958)
Min Temperature 6 °F 18 °F -17 °F (1944)
Degree Days  
Heating Degree Days 47 37  
Month to date heating degree days 924 780  
Since 1 July heating degree days 5483 5175  
Cooling Degree Days 0 0  
Month to date cooling degree days 0 0  
Year to date cooling degree days 0 0  
Moisture  
Dew Point 8 °F    
Average Humidity 70    
Maximum Humidity 84    
Minimum Humidity 55    
Precipitation  
Precipitation 0.00 in 0.02 in 0.25 in (2011)
Month to date precipitation 0.13 0.34  
Year to date precipitation 1.00 0.84  
Sea Level Pressure  
Sea Level Pressure 30.04 in    
Wind  
Wind Speed 2 mph (NNW)    
Max Wind Speed 7 mph    
Max Gust Speed 7 mph    
Visibility 9 miles    
Events      
T = Trace of Precipitation, MM = Missing Value Source: NWS Daily Summary

Daily Weather History Graph

Daily Weather History Graph

Search for Another Location

Airport:

Trip Planner

Search our weather history database for the weather conditions in past years. The results will help you decide how hot, cold, wet, or windy it might be!

Date:

Astronomy

Feb. 19, 2013 Rise Set
Actual Time 7:05 AM MST 5:58 PM MST
Civil Twilight 6:38 AM MST 6:26 PM MST
Nautical Twilight 6:06 AM MST 6:57 PM MST
Astronomical Twilight 5:34 AM MST 7:29 PM MST
Moon 12:32 PM MST (2/19) 2:41 AM MST (2/19)
Length of Visible Light 11h 48m
Length of Day
10h 52m
Waxing Gibbous, 68% of the Moon is Illuminated
Feb 19
Waxing Gibbous
Feb 25
Full
Mar 4
Last Quarter
Mar 11
New
Mar 19
First Quarter

Hourly Weather History & Observations

Time (MST) Temp. Windchill Dew Point Humidity Pressure Visibility Wind Dir Wind Speed Gust Speed Precip Events Conditions
12:53 AM 12.9 °F - 7.0 °F 77% 30.21 in 10.0 mi Calm Calm - N/A   Clear
1:53 AM 12.0 °F - 6.1 °F 77% 30.20 in 10.0 mi Calm Calm - N/A   Clear
2:53 AM 9.0 °F - 3.9 °F 80% 30.18 in 10.0 mi Calm Calm - N/A   Clear
3:53 AM 10.0 °F - 3.0 °F 73% 30.16 in 10.0 mi Calm Calm - N/A   Clear
4:53 AM 8.1 °F 1.4 °F 3.0 °F 80% 30.15 in 10.0 mi WNW 3.5 mph - N/A   Clear
5:53 AM 8.1 °F -0.5 °F 1.9 °F 76% 30.17 in 10.0 mi West 4.6 mph - N/A   Clear
6:53 AM 7.0 °F -1.7 °F 1.0 °F 77% 30.18 in 10.0 mi WNW 4.6 mph - N/A   Clear
7:53 AM 6.1 °F -2.8 °F -0.0 °F 76% 30.18 in 10.0 mi West 4.6 mph - N/A   Clear
8:53 AM 16.0 °F - 5.0 °F 62% 30.13 in 10.0 mi Calm Calm - N/A   Clear
9:53 AM 17.1 °F 10.0 °F 8.1 °F 68% 30.10 in 10.0 mi East 4.6 mph - N/A   Clear
11:53 AM 21.9 °F 17.2 °F 10.9 °F 63% 30.06 in 10.0 mi ENE 3.5 mph - N/A   Clear
12:53 PM 25.0 °F 20.7 °F 12.9 °F 60% 30.01 in 10.0 mi Variable 3.5 mph - N/A   Clear
1:53 PM 27.0 °F - 12.0 °F 53% 29.96 in 10.0 mi Calm Calm - N/A   Clear
2:53 PM 26.1 °F - 14.0 °F 60% 29.94 in 10.0 mi Calm Calm - N/A   Clear
3:53 PM 27.0 °F 20.5 °F 14.0 °F 58% 29.91 in 10.0 mi East 5.8 mph - N/A   Clear
5:53 PM 19.0 °F 12.3 °F 12.0 °F 74% 29.92 in 10.0 mi East 4.6 mph - N/A   Clear
6:53 PM 18.0 °F - 12.0 °F 78% 29.93 in 10.0 mi Calm Calm - N/A   Clear
7:53 PM 16.0 °F - 10.9 °F 81% 29.93 in 10.0 mi Calm Calm - N/A   Clear
8:53 PM 15.1 °F - 10.0 °F 80% 29.88 in 6.0 mi Calm Calm - N/A   Haze
9:53 PM 12.9 °F - 9.0 °F 84% 29.88 in 6.0 mi Calm Calm - N/A   Clear
10:53 PM 10.9 °F - 7.0 °F 84% 29.87 in 5.0 mi Calm Calm - N/A   Clear
11:53 PM 10.9 °F 4.7 °F 7.0 °F 84% 29.84 in 7.0 mi NW 3.5 mph - N/A   Clear